Regional Weather Roundup
Issued by NWS

Home | Current Version | Previous Version | Text Only | Print | Product List | Glossary On
Versions: 1 2 3 4 5 6 7 8 9 10 11 12 13 14 15 16 17 18 19 20 21 22 23 24 25 26 27 28 29 30 31 32 33 34 35 36 37 38 39 40 41 42 43 44 45 46 47 48 49 50
000
ASUS43 KFSD 290810
RWRSD

WEATHER ROUNDUP FOR SOUTH DAKOTA
NATIONAL WEATHER SERVICE SIOUX FALLS SD
300 AM CDT THU JUN 29 2017

NOTE: "FAIR" INDICATES FEW OR NO CLOUDS BELOW 12,000 FEET WITH NO
SIGNIFICANT WEATHER AND/OR OBSTRUCTIONS TO VISIBILITY.


SDZ001>005-009-010-012>017-290900-
NORTHWEST AND NORTH CENTRAL SOUTH DAKOTA

CITY           SKY/WX    TMP DP  RH WIND       PRES   REMARKS
BUFFALO          N/A     58  51  78 NW9       29.73F
FAITH            N/A     62  52  69 W9G17     29.79F
MOBRIDGE       CLOUDY    66  44  45 E10       29.74R
$$

SDZ012>016-024>037-041>051-057-063-072>074-290900-
SOUTHWEST AND SOUTH CENTRAL SOUTH DAKOTA

CITY           SKY/WX    TMP DP  RH WIND       PRES   REMARKS
RAPID CTY ARPT CLEAR     56  48  74 NW9       29.79F
PIERRE         CLOUDY    59  44  57 NE6       29.74S
CUSTER         CLEAR     53  41  63 CALM      29.89F
ELLSWORTH AFB  CLEAR     54  48  81 NW8       29.79F
PHILIP         MOCLDY    60  52  74 NE7       29.74F
PINE RIDGE     CLEAR     55  54  96 S5        29.80F
SPEARFISH      RAIN      55  54  94 SE6G17    29.87R
WINNER         FAIR      71  52  50 VRB6G20   29.68F
$$

SDZ004>011-016>023-039-040-290900-
NORTHEAST SOUTH DAKOTA

CITY           SKY/WX    TMP DP  RH WIND       PRES   REMARKS
ABERDEEN       CLEAR     50  48  93 SW3       29.76S
WATERTOWN      CLEAR     57  56  96 CALM      29.76R
BROOKINGS      CLEAR     54  52  93 NE3       29.76S
SISSETON         N/A     57  56  96 W3        29.73R
$$

SDZ017-020-022-023-036>040-048>070-290900-
SOUTHEAST SOUTH DAKOTA

CITY           SKY/WX    TMP DP  RH WIND       PRES   REMARKS
SIOUX FALLS    CLEAR     60  57  89 CALM      29.74F
HURON          PTCLDY    53  49  86 W5        29.74F
CHAMBERLAIN    MOCLDY    60  47  61 S7        29.77R
MITCHELL       CLOUDY    60  50  69 CALM      29.74F
YANKTON        PTCLDY    63  54  72 NW6       29.74F
$$

ABBREVIATIONS USED IN REMARKS
   TC - TEMPERATURE IN CELSIUS
  WCI - WIND CHILL INDEX
   HX - HEAT INDEX
  VSB - VISIBILITY





USA.gov is the U.S. government's official web portal to all federal, state and local government web resources and services.